Retour au catalogue

SL-12 R/B(2)

ActifGEO
NORAD 16870·ROCKET BODY·🇷🇺 Russia

Lancé Jan 17, 1986 depuis Baikonur Cosmodrome

Loading…

TLE

FraisSource: Space-Track

Époque: Sep 14, 2026, 08:41 UTC

1 16870U 86007F   26257.36199841 -.00000171  00000-0  00000-0 0  9996
2 16870  10.9227 322.0530 0031169 179.8055 345.1603  0.97801061143513

Suivez SL-12 R/B(2) en temps réel avec AllMySat

Download on the App Store